Monroe, NC

11:21 PM EDT on July 20, 2017 (GMT -0400)
Monroe

Weather History for KEQY - December, 2013

Change the Weather History Date:

Wednesday, December 4, 2013

  Actual Average (KCLT) Record (KCLT)
Temperature  
Mean Temperature 58 °F -  
Max Temperature 64 °F 55 °F 76 °F (1956)
Min Temperature 53 °F 34 °F 18 °F (2000)
Degree Days  
Heating Degree Days 6    
Growing Degree Days 8 (Base 50)    
Moisture  
Dew Point 57 °F    
Average Humidity 92    
Maximum Humidity 100    
Minimum Humidity 77    
Precipitation  
Precipitation 0.01 in - - ()
Sea Level Pressure  
Sea Level Pressure 30.04 in    
Wind  
Wind Speed 2 mph (SSW)    
Max Wind Speed 7 mph    
Max Gust Speed -    
Visibility 5 miles    
Events Rain    
Averages and records for this station are not official NWS values.
T = Trace of Precipitation, MM = Missing Value Source: NWS Daily Summary

Daily Weather History Graph

Daily Weather History Graph

Search for Another Location

Airport or City:

Trip Planner

Search our weather history database for the weather conditions in past years. The results will help you decide how hot, cold, wet, or windy it might be!

Date:

Astronomy

Dec. 04, 2013 Rise Set
Actual Time 7:14 AM EST 5:10 PM EST
Civil Twilight 6:47 AM EST 5:38 PM EST
Nautical Twilight 6:15 AM EST 6:09 PM EST
Astronomical Twilight 5:45 AM EST 6:40 PM EST
Moon 8:43 AM EST (12/4) 7:17 PM EST (12/4)
Length of Visible Light 10h 51m
Length of Day
9h 55m
Waxing Crescent, 4% of the Moon is Illuminated
Dec 4
Waxing Crescent
Dec 9
First Quarter
Dec 17
Full
Dec 25
Last Quarter
Jan 1
New

Hourly Weather History & Observations

Time (EST) Temp. Dew Point Humidity Pressure Visibility Wind Dir Wind Speed Gust Speed Precip Events Conditions
12:49 AM 53.6 °F 53.6 °F 100% 29.96 in 5.0 mi Calm Calm - 0.00 in   Overcast
12:53 AM 55.0 °F 53.1 °F 93% 29.99 in 4.0 mi South 3.5 mph - 0.00 in   Overcast
1:22 AM 55.4 °F 53.6 °F 94% 29.96 in 2.5 mi South 4.6 mph - 0.01 in Rain Light Rain
1:33 AM 55.4 °F 53.6 °F 94% 29.96 in 4.0 mi Variable 3.5 mph - 0.01 in Rain Light Rain
1:53 AM 55.9 °F 54.0 °F 93% 29.99 in 4.0 mi South 5.8 mph - 0.01 in   Overcast
2:53 AM 55.9 °F 55.0 °F 97% 30.01 in 5.0 mi Variable 4.6 mph - N/A   Overcast
3:53 AM 55.9 °F 55.0 °F 97% 30.01 in 5.0 mi Calm Calm - N/A   Overcast
4:51 AM 55.4 °F 53.6 °F 94% 29.96 in 2.5 mi Calm Calm - N/A   Overcast
4:53 AM 55.9 °F 55.0 °F 97% 29.99 in 2.5 mi Calm Calm - N/A   Overcast
5:00 AM 55.4 °F 55.4 °F 100% 29.96 in 3.0 mi Calm Calm - N/A   Overcast
5:10 AM 55.4 °F 55.4 °F 100% 29.95 in 4.0 mi Calm Calm - N/A   Overcast
5:53 AM 57.0 °F 55.0 °F 93% 30.00 in 4.0 mi Calm Calm - N/A   Overcast
6:53 AM 57.0 °F 55.0 °F 93% 30.03 in 3.0 mi Calm Calm - N/A   Overcast
7:46 AM 57.2 °F 55.4 °F 94% 30.02 in 1.8 mi Calm Calm - N/A   Overcast
7:53 AM 57.0 °F 55.9 °F 96% 30.05 in 1.5 mi Calm Calm - N/A   Overcast
8:53 AM 57.9 °F 55.9 °F 93% 30.06 in 1.5 mi Calm Calm - N/A   Overcast
9:17 AM 57.2 °F 57.2 °F 100% 30.04 in 1.8 mi Calm Calm - N/A   Overcast
9:53 AM 59.0 °F 57.0 °F 93% 30.08 in 2.5 mi SSW 3.5 mph - N/A   Overcast
10:03 AM 59.0 °F 57.2 °F 94% 30.05 in 3.0 mi Calm Calm - N/A   Overcast
10:10 AM 59.0 °F 57.2 °F 94% 30.05 in 3.0 mi Calm Calm - N/A   Overcast
10:50 AM 60.8 °F 57.2 °F 88% 30.06 in 5.0 mi SW 4.6 mph - N/A   Overcast
10:53 AM 60.1 °F 57.9 °F 93% 30.09 in 5.0 mi SW 4.6 mph - N/A   Overcast
11:53 AM 61.0 °F 57.9 °F 90% 30.08 in 9.0 mi WSW 4.6 mph - N/A   Overcast
12:19 PM 62.6 °F 57.2 °F 82% 30.03 in 10.0 mi SSW 3.5 mph - N/A   Overcast
12:46 PM 62.6 °F 57.2 °F 82% 30.03 in 10.0 mi SW 4.6 mph - N/A   Overcast
12:53 PM 63.0 °F 57.0 °F 81% 30.05 in 10.0 mi SW 5.8 mph - N/A   Overcast
1:53 PM 63.0 °F 57.0 °F 81% 30.03 in 10.0 mi SW 3.5 mph - N/A   Overcast
2:00 PM 64.4 °F 57.2 °F 77% 30.01 in 10.0 mi Calm Calm - N/A   Overcast
2:53 PM 63.0 °F 57.0 °F 81% 30.02 in 10.0 mi SSW 5.8 mph - N/A   Overcast
3:53 PM 63.0 °F 57.0 °F 81% 30.04 in 10.0 mi Calm Calm - N/A   Overcast
4:35 PM 62.6 °F 57.2 °F 82% 30.03 in 10.0 mi Calm Calm - N/A   Overcast
4:53 PM 63.0 °F 57.0 °F 81% 30.06 in 8.0 mi Calm Calm - 0.00 in Rain Light Rain
5:00 PM 62.6 °F 57.2 °F 82% 30.03 in 9.0 mi Calm Calm - 0.00 in Rain Light Rain
5:53 PM 60.1 °F 57.9 °F 93% 30.07 in 10.0 mi Calm Calm - 0.00 in   Overcast
6:33 PM 59.0 °F 57.2 °F 94% 30.04 in 9.0 mi Calm Calm - N/A   Overcast
6:51 PM 60.8 °F 57.2 °F 88% 30.04 in 9.0 mi Calm Calm - N/A   Overcast
6:53 PM 60.1 °F 57.0 °F 90% 30.06 in 9.0 mi Calm Calm - N/A   Overcast
7:53 PM 57.9 °F 55.9 °F 93% 30.07 in 5.0 mi Calm Calm - N/A   Clear
8:00 PM 55.4 °F 55.4 °F 100% 30.05 in 1.8 mi Calm Calm - N/A   Clear
8:14 PM 57.2 °F 55.4 °F 94% 30.04 in 3.0 mi Calm Calm - N/A   Clear
8:36 PM 59.0 °F 57.2 °F 94% 30.05 in 4.0 mi Variable 3.5 mph - N/A   Scattered Clouds
8:48 PM 59.0 °F 57.2 °F 94% 30.06 in 3.0 mi South 4.6 mph - N/A   Mostly Cloudy
8:53 PM 60.1 °F 57.9 °F 93% 30.08 in 3.0 mi South 4.6 mph - N/A   Mostly Cloudy
9:02 PM 60.8 °F 57.2 °F 88% 30.06 in 2.5 mi South 4.6 mph - N/A   Overcast
9:14 PM 60.8 °F 59.0 °F 94% 30.06 in 3.0 mi South 4.6 mph - N/A   Overcast
9:28 PM 60.8 °F 59.0 °F 94% 30.07 in 2.5 mi Variable 5.8 mph - N/A   Overcast
9:53 PM 60.1 °F 59.0 °F 96% 30.10 in 2.5 mi SSW 4.6 mph - N/A   Overcast
10:04 PM 60.8 °F 59.0 °F 94% 30.07 in 3.0 mi Variable 4.6 mph - N/A   Overcast
10:40 PM 60.8 °F 59.0 °F 94% 30.08 in 4.0 mi Variable 3.5 mph - N/A   Overcast
10:53 PM 60.1 °F 57.9 °F 93% 30.10 in 4.0 mi SSW 3.5 mph - N/A   Overcast
11:34 PM 60.8 °F 59.0 °F 94% 30.09 in 2.5 mi SSW 6.9 mph - N/A   Overcast
11:53 PM 60.1 °F 59.0 °F 96% 30.12 in 1.5 mi SW 5.8 mph - N/A   Overcast